Weather History for Romeoville, IL

Change the Weather History Date:

Saturday, December 7, 2013

  Actual Average Record
Temperature  
Mean Temperature 14 °F 30 °F  
Max Temperature 20 °F 37 °F 51 °F (2004)
Min Temperature 7 °F 23 °F -5 °F (2005)
Degree Days  
Heating Degree Days 51 35  
Month to date heating degree days 234 236  
Since 1 July heating degree days 1556 1455  
Cooling Degree Days 0 0  
Month to date cooling degree days 0 0  
Year to date cooling degree days 950 862  
Moisture  
Dew Point 3 °F    
Average Humidity 66    
Maximum Humidity 79    
Minimum Humidity 46    
Precipitation  
Precipitation 0.00 in 0.07 in 0.94 in (2004)
Month to date precipitation 0.06 0.53  
Year to date precipitation 39.41 38.35  
Snow  
Snow 0.00 in 0.20 in 1.90 in (2000)
Month to date snowfall T 1.5  
Since 1 July snowfall 0.9 2.4  
Snow Depth 0.00 in    
Sea Level Pressure  
Sea Level Pressure 30.61 in    
Wind  
Wind Speed 6 mph (NNW)    
Max Wind Speed 10 mph    
Max Gust Speed -    
Visibility 10 miles    
Events      
T = Trace of Precipitation, MM = Missing Value Source: NWS Daily Summary

Daily Weather History Graph

Daily Weather History Graph

Search for Another Location

Airport:

Trip Planner

Search our weather history database for the weather conditions in past years. The results will help you decide how hot, cold, wet, or windy it might be!

Date:

Astronomy

Dec. 07, 2013 Rise Set
Actual Time 7:05 AM CST 4:22 PM CST
Civil Twilight 6:34 AM CST 4:53 PM CST
Nautical Twilight 5:59 AM CST 5:28 PM CST
Astronomical Twilight 5:26 AM CST 6:01 PM CST
Moon 10:48 AM CST (12/7) 10:06 PM CST (12/7)
Length of Visible Light 10h 18m
Length of Day
9h 16m
Waxing Crescent, 29% of the Moon is Illuminated
Dec 7
Waxing Crescent
Dec 9
First Quarter
Dec 17
Full
Dec 25
Last Quarter
Jan 1
New

Hourly Weather History & Observations

Time (CST) Temp. Windchill Dew Point Humidity Pressure Visibility Wind Dir Wind Speed Gust Speed Precip Events Conditions
12:15 AM 11.7 °F -0.9 °F 4.1 °F 72% 30.54 in 10.0 mi NNW 9.2 mph - N/A   Scattered Clouds
12:35 AM 11.3 °F -1.3 °F 4.1 °F 73% 30.54 in 10.0 mi NNW 9.2 mph - N/A   Clear
12:55 AM 11.1 °F -0.6 °F 3.6 °F 72% 30.54 in 10.0 mi NNW 8.1 mph - N/A   Clear
1:15 AM 10.8 °F 1.2 °F 3.0 °F 71% 30.54 in 10.0 mi NNW 5.8 mph - N/A   Clear
1:35 AM 10.8 °F -1.1 °F 2.7 °F 70% 30.55 in 10.0 mi NNW 8.1 mph - N/A   Clear
1:55 AM 9.9 °F -1.1 °F 3.0 °F 74% 30.56 in 10.0 mi NNW 6.9 mph - N/A   Clear
2:15 AM 10.0 °F -2.9 °F 2.8 °F 73% 30.56 in 10.0 mi NNW 9.2 mph - N/A   Clear
2:35 AM 9.5 °F -2.6 °F 2.8 °F 74% 30.57 in 10.0 mi NNW 8.1 mph - N/A   Clear
2:55 AM 9.3 °F -2.8 °F 2.7 °F 74% 30.57 in 10.0 mi NNW 8.1 mph - N/A   Clear
3:15 AM 9.1 °F -3.0 °F 2.3 °F 74% 30.57 in 10.0 mi NNW 8.1 mph - N/A   Clear
3:35 AM 8.4 °F -1.6 °F 2.1 °F 76% 30.57 in 10.0 mi NNW 5.8 mph - N/A   Clear
3:55 AM 8.1 °F -0.5 °F 2.1 °F 77% 30.58 in 10.0 mi NNW 4.6 mph - N/A   Clear
4:15 AM 7.9 °F 1.2 °F 2.1 °F 77% 30.59 in 10.0 mi NNW 3.5 mph - N/A   Clear
4:35 AM 7.7 °F -2.4 °F 2.1 °F 78% 30.59 in 10.0 mi NNW 5.8 mph - N/A   Clear
4:55 AM 7.7 °F -0.9 °F 1.9 °F 77% 30.60 in 10.0 mi NNW 4.6 mph - N/A   Clear
5:15 AM 7.5 °F -2.6 °F 1.6 °F 77% 30.60 in 10.0 mi NNW 5.8 mph - N/A   Clear
5:35 AM 7.2 °F -1.5 °F 1.2 °F 77% 30.61 in 10.0 mi NNW 4.6 mph - N/A   Clear
5:55 AM 7.0 °F -3.3 °F 1.2 °F 77% 30.61 in 10.0 mi NNW 5.8 mph - N/A   Clear
6:15 AM 6.8 °F -3.5 °F 1.2 °F 78% 30.62 in 10.0 mi NNW 5.8 mph - N/A   Clear
6:35 AM 6.8 °F -3.5 °F 1.4 °F 79% 30.63 in 10.0 mi NNW 5.8 mph - N/A   Clear
6:55 AM 6.4 °F -5.2 °F 1.0 °F 78% 30.63 in 10.0 mi NNW 6.9 mph - N/A   Clear
7:15 AM 6.8 °F -2.0 °F 1.4 °F 79% 30.64 in 10.0 mi NNW 4.6 mph - N/A   Clear
7:35 AM 7.7 °F -2.4 °F 2.1 °F 78% 30.65 in 10.0 mi NW 5.8 mph - N/A   Clear
7:55 AM 8.6 °F -1.3 °F 2.5 °F 76% 30.66 in 10.0 mi NW 5.8 mph - N/A   Clear
8:15 AM 9.1 °F -1.9 °F 2.8 °F 76% 30.66 in 10.0 mi NNW 6.9 mph - N/A   Clear
8:35 AM 9.5 °F -4.4 °F 3.0 °F 75% 30.66 in 10.0 mi NNW 10.4 mph - N/A   Clear
8:55 AM 10.2 °F -2.7 °F 3.4 °F 74% 30.67 in 10.0 mi NNW 9.2 mph - N/A   Clear
9:15 AM 11.1 °F -0.6 °F 3.6 °F 72% 30.68 in 10.0 mi NNW 8.1 mph - N/A   Clear
9:35 AM 11.3 °F 1.9 °F 3.2 °F 70% 30.68 in 10.0 mi NNW 5.8 mph - N/A   Clear
9:55 AM 12.4 °F 4.6 °F 3.9 °F 69% 30.68 in 10.0 mi NNW 4.6 mph - N/A   Clear
10:15 AM 13.1 °F 1.8 °F 3.4 °F 65% 30.68 in 10.0 mi NNW 8.1 mph - N/A   Clear
10:35 AM 14.2 °F 4.1 °F 3.6 °F 63% 30.68 in 10.0 mi North 6.9 mph - N/A   Clear
10:55 AM 14.4 °F 5.5 °F 3.2 °F 61% 30.67 in 10.0 mi NNW 5.8 mph - N/A   Clear
11:15 AM 15.3 °F 3.5 °F 3.4 °F 59% 30.67 in 10.0 mi NNW 9.2 mph - N/A   Clear
11:35 AM 15.8 °F 8.6 °F 2.8 °F 57% 30.66 in 10.0 mi North 4.6 mph - N/A   Clear
11:55 AM 17.1 °F 8.7 °F 3.6 °F 56% 30.65 in 10.0 mi NNW 5.8 mph - N/A   Clear
12:15 PM 17.6 °F 7.3 °F 3.6 °F 54% 30.64 in 10.0 mi NW 8.1 mph - N/A   Clear
12:35 PM 18.0 °F 8.7 °F 3.2 °F 53% 30.64 in 10.0 mi North 6.9 mph - N/A   Clear
12:55 PM 18.7 °F 10.6 °F 3.0 °F 51% 30.64 in 10.0 mi NNW 5.8 mph - N/A   Clear
1:15 PM 19.0 °F 8.2 °F 3.7 °F 51% 30.64 in 10.0 mi WNW 9.2 mph - N/A   Clear
1:35 PM 19.2 °F 9.3 °F 3.6 °F 51% 30.63 in 10.0 mi NW 8.1 mph - N/A   Clear
1:55 PM 19.9 °F 9.3 °F 3.4 °F 49% 30.62 in 10.0 mi North 9.2 mph - N/A   Clear
2:15 PM 19.9 °F 12.1 °F 3.4 °F 49% 30.61 in 10.0 mi North 5.8 mph - N/A   Clear
2:35 PM 19.9 °F 10.1 °F 3.0 °F 48% 30.62 in 10.0 mi North 8.1 mph - N/A   Clear
2:55 PM 19.9 °F 12.1 °F 2.1 °F 46% 30.62 in 10.0 mi North 5.8 mph - N/A   Clear
3:15 PM 19.4 °F 10.4 °F 2.1 °F 47% 30.61 in 10.0 mi NW 6.9 mph - N/A   Clear
3:35 PM 19.2 °F 11.3 °F 3.4 °F 50% 30.61 in 10.0 mi NNW 5.8 mph - N/A   Clear
3:55 PM 18.5 °F 8.4 °F 3.2 °F 51% 30.62 in 10.0 mi NNW 8.1 mph - N/A   Clear
4:15 PM 17.4 °F 9.1 °F 3.6 °F 55% 30.62 in 10.0 mi NNW 5.8 mph - N/A   Clear
4:35 PM 17.1 °F 8.7 °F 3.7 °F 56% 30.61 in 10.0 mi North 5.8 mph - N/A   Clear
4:55 PM 16.5 °F 6.9 °F 4.3 °F 59% 30.61 in 10.0 mi North 6.9 mph - N/A   Clear
5:15 PM 15.6 °F 8.3 °F 3.9 °F 60% 30.61 in 10.0 mi North 4.6 mph - N/A   Clear
5:35 PM 14.9 °F 7.5 °F 4.1 °F 62% 30.61 in 10.0 mi North 4.6 mph - N/A   Clear
5:55 PM 15.8 °F 8.6 °F 3.2 °F 58% 30.61 in 10.0 mi North 4.6 mph - N/A   Clear
6:15 PM 14.7 °F - 3.2 °F 60% 30.61 in 10.0 mi Calm Calm - N/A   Clear
6:35 PM 15.3 °F - 3.2 °F 59% 30.60 in 10.0 mi Calm Calm - N/A   Clear
6:55 PM 14.2 °F 8.4 °F 3.6 °F 63% 30.60 in 10.0 mi NNE 3.5 mph - N/A   Clear
7:15 PM 14.5 °F - 3.2 °F 61% 30.60 in 10.0 mi Calm Calm - N/A   Clear
7:35 PM 14.7 °F 9.0 °F 3.2 °F 60% 30.59 in 10.0 mi NNE 3.5 mph - N/A   Clear
7:55 PM 13.8 °F - 3.7 °F 64% 30.59 in 10.0 mi Calm Calm - N/A   Clear
8:15 PM 14.0 °F - 3.9 °F 64% 30.59 in 10.0 mi Calm Calm - N/A   Clear
8:35 PM 14.5 °F 8.8 °F 3.9 °F 63% 30.58 in 10.0 mi ENE 3.5 mph - N/A   Clear
8:55 PM 14.0 °F 8.2 °F 3.7 °F 64% 30.57 in 10.0 mi East 3.5 mph - N/A   Clear
9:15 PM 13.6 °F 7.7 °F 4.8 °F 68% 30.57 in 10.0 mi ENE 3.5 mph - N/A   Clear
9:35 PM 13.1 °F 7.1 °F 4.5 °F 68% 30.56 in 10.0 mi ENE 3.5 mph - N/A   Clear
9:55 PM 12.9 °F 6.9 °F 5.2 °F 71% 30.56 in 10.0 mi NE 3.5 mph - N/A   Clear
10:15 PM 13.3 °F 7.3 °F 5.5 °F 71% 30.56 in 10.0 mi ENE 3.5 mph - N/A   Clear
10:35 PM 13.8 °F 8.0 °F 7.2 °F 75% 30.56 in 10.0 mi NE 3.5 mph - N/A   Clear
10:55 PM 13.8 °F 6.2 °F 6.3 °F 72% 30.56 in 10.0 mi NNE 4.6 mph - N/A   Clear
11:15 PM 14.4 °F 6.9 °F 6.1 °F 70% 30.57 in 10.0 mi NNE 4.6 mph - N/A   Clear
11:35 PM 13.8 °F - 6.8 °F 74% 30.58 in 10.0 mi Calm Calm - N/A   Clear
11:55 PM 14.4 °F - 6.3 °F 70% 30.58 in 10.0 mi Calm Calm - N/A   Clear